CST,Max TemperatureF,Mean TemperatureF,Min TemperatureF,Max Dew PointF,MeanDew PointF,Min DewpointF,Max Humidity, Mean Humidity, Min Humidity, Max Sea Level PressureIn, Mean Sea Level PressureIn, Min Sea Level PressureIn, Max VisibilityMiles, Mean VisibilityMiles, Min VisibilityMiles, Max Wind SpeedMPH, Mean Wind SpeedMPH, Max Gust SpeedMPH,PrecipitationIn, CloudCover, Events, WindDirDegrees
2012-11-1,66,49,32,39,32,27,87,56,27,30.06,29.98,29.91,10,10,10,8,3,,0.00,1,,225
2012-11-2,64,53,42,41,37,32,87,56,30,30.06,30.00,29.90,10,10,4,9,5,,0.00,0,,30
2012-11-3,71,58,44,48,39,36,76,57,40,30.14,30.03,29.95,10,9,2,16,6,21,0.00,1,,27
2012-11-4,57,48,39,39,35,30,93,70,38,30.24,30.18,30.14,10,8,3,8,4,,0.00,1,,7
2012-11-5,50,46,41,41,38,36,87,74,58,30.17,30.10,30.05,10,9,2,9,3,,0.02,7,,64
2012-11-6,51,46,41,43,40,37,87,78,62,30.08,30.01,29.95,10,8,4,9,3,,0.00,8,Rain,264
2012-11-7,51,43,35,43,39,32,87,74,58,30.19,30.07,29.94,10,10,5,13,6,20,0.00,6,Rain,310
2012-11-8,59,44,30,48,36,28,94,74,42,30.28,30.22,30.17,10,6,0,7,2,,0.00,0,Fog,192
2012-11-9,71,63,55,54,47,41,64,53,42,30.17,30.09,30.05,10,10,10,16,11,23,0.00,0,,179
2012-11-10,75,63,51,55,47,41,72,57,36,30.19,30.12,30.07,10,10,10,20,8,25,0.00,1,,172
2012-11-11,73,64,53,59,51,45,94,62,50,30.09,30.02,29.92,10,9,2,28,15,32,0.83,6,Rain,171
2012-11-12,53,43,33,52,31,21,94,65,32,30.47,30.33,30.03,10,9,2,17,8,23,0.34,2,Rain,287
2012-11-13,51,40,28,34,27,23,93,65,33,30.55,30.48,30.44,10,10,3,8,2,,0.00,0,,27
2012-11-14,50,41,32,32,29,27,87,68,43,30.48,30.42,30.35,10,10,5,10,4,,0.00,0,,20
2012-11-15,55,42,28,37,31,27,93,70,38,30.41,30.36,30.32,10,9,2,5,1,,0.00,0,,16
2012-11-16,59,44,30,37,30,27,93,63,29,30.46,30.42,30.38,10,10,2,9,2,,0.00,0,,24
2012-11-17,62,46,30,37,31,27,93,66,27,30.50,30.43,30.39,10,9,1,9,1,17,0.00,0,,45
2012-11-18,64,47,30,43,34,27,93,70,32,30.42,30.37,30.33,10,8,0,7,1,,0.00,0,,172
2012-11-19,66,52,37,45,38,34,93,64,32,30.33,30.26,30.16,10,10,4,8,1,,0.00,4,,207
2012-11-20,68,60,51,50,46,41,82,64,49,30.18,30.12,30.05,10,10,7,9,3,,0.00,2,,245
2012-11-21,68,54,39,55,44,37,94,78,46,30.28,30.22,30.16,10,5,0,6,2,,0.00,1,Fog,29
2012-11-22,68,50,33,55,43,32,100,73,46,30.20,30.14,30.07,10,6,0,16,4,21,0.00,3,Fog,203
2012-11-23,57,46,35,52,34,21,88,57,38,30.34,30.23,30.08,10,10,7,23,9,30,0.00,2,Rain,305
2012-11-24,42,34,26,25,21,18,74,58,39,30.37,30.27,30.13,10,10,10,9,5,,0.00,0,,269
2012-11-25,59,46,32,34,29,23,81,59,34,30.13,30.04,29.96,10,10,10,16,7,22,0.00,1,,196
2012-11-26,50,41,32,43,36,30,93,79,54,30.30,30.13,30.05,10,8,2,17,3,26,0.37,6,Rain-Thunderstorm,17
2012-11-27,46,36,26,32,27,23,86,73,46,30.41,30.36,30.29,10,9,3,15,8,18,0.00,0,,355
2012-11-28,51,37,23,39,28,21,93,76,43,30.48,30.41,30.36,10,7,0,6,0,,0.00,1,Fog,221
2012-11-29,59,42,26,36,30,25,93,63,36,30.37,30.29,30.22,10,8,2,14,3,20,0.00,0,,182
2012-11-30,64,52,41,46,40,28,76,61,45,30.24,30.20,30.14,10,10,10,13,7,18,0.00,3,,181